[[{"header":{"parameterUnit":"m.s-1","parameterCategory":1,"la1":30.2992,"la2":30.254,"lo1":-89.0895,"lo2":-89.0443,"dy":0.0025,"dx":0.0025,"nx":19,"ny":19,"refTime":"2026-03-22T09:00:00:Z","depth":0,"parameterNumber":2,"parameterNumberName":"U-component_of_WINDS"},"data":[0,0,0,0.526,0.5262,0.5376,0.5376,0.5534,0.5535,0,0,0,0,0,0,0,0,0,0,0,0.5229,0.523,0.5259,0.5262,0.5376,0.5376,0.5533,0.5535,0,0,0,0,0,0,0,0,0,0,0,0.5228,0.523,0.5231,0.5263,0.5376,0.5376,0.5533,0.5444,0,0,0,0,0,0,0,0,0,0,0.5332,0.5305,0.5229,0.5231,0.5263,0.5376,0.5376,0.544,0.545,0.5486,0,0.5515,0,0.5528,0.5546,0.5547,0,0,0,0.5261,0.5297,0.5325,0.5231,0.5264,0.5375,0.5324,0.5445,0.5456,0.5499,0.5518,0.5523,0.553,0.5547,0.5548,0.5755,0.5756,0,0,0.5255,0.5252,0.5317,0.5332,0.531,0.5321,0.5328,0.5452,0.5473,0.5518,0.5527,0.5533,0.5548,0.5549,0.5754,0.5755,0,0,0,0.5238,0.5248,0.5272,0.5326,0.5345,0.5324,0.5332,0.5467,0.5475,0.5528,0.5535,0.5549,0.5551,0.5753,0.5755,0.5804,0,0,0,0.5234,0.5237,0.5269,0.5269,0.5343,0.5407,0.5345,0.5467,0.5481,0.5534,0.5549,0.5553,0.5752,0.5754,0.58,0.5829,0,0,0,0.5221,0.5236,0.5253,0.5268,0.5316,0.5405,0.542,0.547,0.5485,0.5547,0.5553,0.5751,0.5753,0.5796,0.5823,0.5886,0,0,0,0.5207,0.5294,0.5253,0.5354,0.5315,0.5432,0.5419,0.5507,0.5565,0.555,0.5752,0.5754,0.5795,0.582,0.5882,0.594,0.5962,0,0,0.5315,0.5307,0.5366,0.5334,0.5457,0.5415,0.5547,0.5605,0.5614,0.5709,0.5714,0.5801,0.5823,0.5885,0.6084,0.6101,0,0,0,0.54,0.5444,0.5477,0.5531,0.5576,0.5619,0.5655,0.5678,0.5758,0.5661,0.5838,0.5851,0.5888,0.5917,0.5932,0.5966,0.5766,0.5766,0.5765,0.5552,0.5559,0.566,0.5681,0.5734,0.5773,0.5819,0.5856,0.5846,0.5889,0.5918,0.6038,0.607,0.6082,0.6117,0.5946,0.5946,0.5946,0.5946,0.5716,0.5781,0.5767,0.586,0.5869,0.5948,0.599,0.5982,0.6061,0.6015,0.6048,0.6001,0.6101,0.6133,0.595,0.595,0.5949,0.5949,0.5948,0.582,0.5852,0.5876,0.5958,0.6021,0.604,0.6117,0.6121,0.6126,0.6158,0.6193,0.6192,0.6196,0.6173,0.6174,0.6174,0.6175,0.6175,0.6175,0.5919,0.5944,0.6007,0.6063,0.6101,0.6151,0.6192,0.6231,0.6276,0.6273,0.6274,0.6265,0.6107,0.607,0.6182,0.6181,0.618,0.6179,0.6179,0.609,0.6053,0.6149,0.6187,0.6256,0.6322,0.6325,0.6404,0.6437,0.6476,0.6459,0.634,0.6334,0.6322,0.6292,0.6454,0.6454,0.6454,0.6454,0.6181,0.6176,0.6278,0.6339,0.6399,0.6413,0.6529,0.6563,0.6594,0.6616,0.6592,0.6551,0.6538,0.6539,0.6522,0.6495,0.6705,0.6705,0.6705,0.6289,0.6291,0.6386,0.6412,0.6467,0.6516,0.6626,0.6701,0.6727,0.6716,0.6634,0.6624,0.6557,0.6534,0.6524,0.6498,0.6447,0,0]},{"header":{"parameterUnit":"m.s-1","parameterCategory":1,"la1":30.2992,"la2":30.254,"lo1":-89.0895,"lo2":-89.0443,"dy":0.0025,"dx":0.0025,"nx":19,"ny":19,"refTime":"2026-03-22T09:00:00:Z","depth":0,"parameterNumber":3,"parameterNumberName":"V-component_of_WINDS"},"data":[0,0,0,4.1708,4.1712,4.1898,4.1899,4.213,4.2132,0,0,0,0,0,0,0,0,0,0,0,4.1652,4.1654,4.1708,4.1713,4.1898,4.1899,4.213,4.2132,0,0,0,0,0,0,0,0,0,0,0,4.1651,4.1653,4.1655,4.1713,4.1898,4.1899,4.2129,4.1991,0,0,0,0,0,0,0,0,0,0,4.1811,4.1759,4.1653,4.1655,4.1714,4.1898,4.1899,4.1984,4.1999,4.2044,0,4.2086,0,4.2113,4.2148,4.2148,0,0,0,4.1713,4.1746,4.1798,4.1656,4.1716,4.1898,4.1815,4.1993,4.201,4.2064,4.2089,4.2098,4.2117,4.2149,4.215,4.2417,4.2418,0,0,4.1702,4.1684,4.1786,4.1809,4.1783,4.1809,4.182,4.2003,4.2028,4.209,4.2104,4.2121,4.2151,4.2152,4.2416,4.2417,0,0,0,4.1673,4.1677,4.1724,4.1799,4.1833,4.1814,4.1827,4.202,4.2037,4.2106,4.2124,4.2152,4.2155,4.2414,4.2416,4.2464,0,0,0,4.1667,4.166,4.172,4.171,4.183,4.193,4.184,4.2024,4.2046,4.2122,4.2152,4.2157,4.2413,4.2415,4.246,4.2489,0,0,0,4.164,4.1657,4.1683,4.1709,4.1788,4.1927,4.1955,4.2029,4.2056,4.2149,4.2158,4.2412,4.2415,4.2456,4.2483,4.2557,0,0,0,4.1606,4.1719,4.1684,4.1817,4.1787,4.1955,4.1954,4.2079,4.2163,4.2153,4.2413,4.2416,4.2455,4.2479,4.2553,4.2618,4.2643,0,0,4.1739,4.1735,4.1815,4.1788,4.1959,4.1928,4.2105,4.2197,4.222,4.2349,4.2356,4.2461,4.2483,4.2556,4.2784,4.2803,0,0,0,4.1851,4.1908,4.1957,4.2039,4.2115,4.2183,4.2251,4.2285,4.2396,4.2284,4.2506,4.252,4.2564,4.2596,4.2613,4.2653,4.2429,4.2429,4.2429,4.2013,4.204,4.2175,4.2226,4.2304,4.2375,4.2441,4.2499,4.2499,4.2552,4.2591,4.2726,4.2763,4.2776,4.2817,4.2625,4.2625,4.2625,4.2626,4.2213,4.23,4.2302,4.2435,4.2462,4.2571,4.2643,4.2641,4.2746,4.2698,4.2738,4.2686,4.2797,4.2835,4.2629,4.2629,4.2628,4.2628,4.2628,4.2325,4.2372,4.2414,4.2538,4.2628,4.2673,4.2776,4.2795,4.2813,4.2852,4.2898,4.2897,4.2901,4.2872,4.2873,4.2873,4.2874,4.2874,4.2874,4.2426,4.2472,4.2559,4.2651,4.2707,4.2784,4.2856,4.2911,4.2976,4.2982,4.2983,4.298,4.2802,4.2759,4.2882,4.288,4.2879,4.2879,4.2878,4.2624,4.2583,4.2717,4.2774,4.2885,4.2975,4.2998,4.3109,4.3157,4.3207,4.3196,4.306,4.3057,4.3043,4.3008,4.3188,4.3188,4.3188,4.3188,4.2722,4.2722,4.2865,4.2956,4.3045,4.3081,4.3231,4.3287,4.3339,4.337,4.3346,4.3299,4.3285,4.329,4.3272,4.3239,4.3474,4.3474,4.3474,4.2847,4.2857,4.2983,4.3037,4.3125,4.3199,4.3341,4.3443,4.3492,4.3486,4.3396,4.3384,4.3309,4.3283,4.3278,4.3248,4.3189,0,0]}]]